| time (UTC) | temp C | wind direction | speed KPH | gust KPH | rain 1hr cm | rain 24hr cm | rain mn cm | humidity % | barometer mb |
| 20260502210816 | 9 | 294 | 4.8 | 12.9 | 0.00 | 0.15 | 0.15 | 43 | 1016.0 |
| 20260502205815 | 9 | 330 | 6.4 | 19.3 | 0.00 | 0.15 | 0.15 | 41 | 1016.1 |
| 20260502204856 | 9 | 334 | 6.4 | 12.9 | 0.00 | 0.15 | 0.15 | 41 | 1016.2 |
| 20260502203816 | 9 | 288 | 9.7 | 14.5 | 0.00 | 0.15 | 0.15 | 41 | 1016.1 |
| 20260502202816 | 9 | 348 | 3.2 | 14.5 | 0.00 | 0.15 | 0.15 | 42 | 1016.2 |
| 20260502201815 | 9 | 290 | 8.0 | 14.5 | 0.00 | 0.15 | 0.15 | 42 | 1016.3 |
| 20260502200836 | 8 | 282 | 4.8 | 14.5 | 0.00 | 0.15 | 0.15 | 41 | 1016.5 |
| 20260502195815 | 9 | 276 | 6.4 | 12.9 | 0.00 | 0.15 | 0.15 | 40 | 1016.4 |
| 20260502194816 | 9 | 267 | 3.2 | 12.9 | 0.00 | 0.15 | 0.15 | 42 | 1016.6 |
| 20260502193816 | 9 | 265 | 8.0 | 12.9 | 0.00 | 0.15 | 0.15 | 41 | 1016.7 |
| 20260502192816 | 9 | 322 | 8.0 | 17.7 | 0.00 | 0.15 | 0.15 | 41 | 1016.8 |
| 20260502191816 | 8 | 11 | 4.8 | 12.9 | 0.00 | 0.15 | 0.15 | 46 | 1017.0 |
| 20260502190816 | 8 | 290 | 4.8 | 9.7 | 0.00 | 0.15 | 0.15 | 44 | 1017.2 |
| 20260502185820 | 8 | 331 | 4.8 | 9.7 | 0.00 | 0.15 | 0.15 | 43 | 1017.3 |
| 20260502184836 | 8 | 325 | 4.8 | 8.0 | 0.00 | 0.15 | 0.15 | 44 | 1017.3 |
| 20260502183816 | 8 | 252 | 6.4 | 14.5 | 0.00 | 0.15 | 0.15 | 44 | 1017.3 |
| 20260502181816 | 8 | 45 | 1.6 | 3.2 | 0.00 | 0.15 | 0.15 | 46 | 1017.4 |
| 20260502180816 | 8 | 340 | 4.8 | 6.4 | 0.00 | 0.15 | 0.15 | 44 | 1017.5 |
| 20260502163816 | 7 | 277 | 6.4 | 12.9 | 0.00 | 0.15 | 0.15 | 49 | 1018.0 |
| 20260502162816 | 7 | 9 | 4.8 | 12.9 | 0.00 | 0.15 | 0.15 | 47 | 1018.1 |
| 20260502161816 | 7 | 333 | 4.8 | 6.4 | 0.00 | 0.15 | 0.15 | 51 | 1018.0 |
| 20260502160816 | 7 | 287 | 6.4 | 14.5 | 0.00 | 0.15 | 0.15 | 50 | 1017.9 |
| 20260502151816 | 6 | 267 | 3.2 | 11.3 | 0.00 | 0.15 | 0.15 | 53 | 1017.8 |
| 20260502150816 | 6 | 321 | 9.7 | 16.1 | 0.00 | 0.15 | 0.15 | 54 | 1017.7 |
| 20260502123816 | 3 | 320 | 6.4 | 8.0 | 0.00 | 0.15 | 0.15 | 83 | 1018.0 |
| 20260502122816 | 3 | 290 | 3.2 | 4.8 | 0.00 | 0.15 | 0.15 | 87 | 1017.9 |
| 20260502121816 | 2 | 0.0 | 0.0 | 0.00 | 0.15 | 0.15 | 87 | 1018.0 | |
| 20260502120816 | 1 | 0.0 | 0.0 | 0.00 | 0.15 | 0.15 | 87 | 1018.0 | |
| 20260502115816 | 1 | 0.0 | 0.0 | 0.00 | 0.15 | 0.15 | 87 | 1017.9 | |
| 20260502114816 | 1 | 0.0 | 0.0 | 0.00 | 0.15 | 0.15 | 86 | 1017.8 | |
| 20260502113816 | 1 | 0.0 | 0.0 | 0.00 | 0.15 | 0.15 | 85 | 1017.8 | |
| 20260502112816 | 1 | 0.0 | 0.0 | 0.00 | 0.15 | 0.15 | 85 | 1017.6 | |
| 20260502111836 | 0 | 0.0 | 0.0 | 0.00 | 0.15 | 0.15 | 84 | 1017.6 | |
| 20260502110816 | 0 | 0.0 | 0.0 | 0.00 | 0.15 | 0.15 | 84 | 1017.5 | |
| 20260502105816 | 0 | 0.0 | 0.0 | 0.00 | 0.15 | 0.15 | 84 | 1017.3 | |
| 20260502104816 | 1 | 0.0 | 0.0 | 0.00 | 0.15 | 0.15 | 83 | 1017.2 | |
| 20260502103816 | 1 | 0.0 | 0.0 | 0.00 | 0.15 | 0.15 | 83 | 1017.1 | |
| 20260502102816 | 1 | 0.0 | 0.0 | 0.00 | 0.15 | 0.15 | 83 | 1017.1 | |
| 20260502101816 | 1 | 0.0 | 0.0 | 0.00 | 0.15 | 0.15 | 83 | 1017.1 | |
| 20260502100816 | 1 | 0.0 | 0.0 | 0.00 | 0.15 | 0.15 | 83 | 1017.0 | |
| 20260502090816 | 2 | 0.0 | 0.0 | 0.00 | 0.15 | 0.15 | 83 | 1016.8 | |
| 20260502070816 | 2 | 0.0 | 0.0 | 0.13 | 0.23 | 0.13 | 79 | 1016.4 | |
| 20260502065816 | 2 | 0.0 | 0.0 | 0.13 | 0.25 | 0.13 | 78 | 1016.4 | |
| 20260502064816 | 2 | 0.0 | 1.6 | 0.13 | 0.25 | 0.13 | 77 | 1016.5 | |
| 20260502063816 | 3 | 138 | 3.2 | 4.8 | 0.08 | 0.20 | 0.08 | 76 | 1016.7 |
| 20260502062816 | 3 | 0.0 | 0.0 | 0.03 | 0.15 | 0.03 | 76 | 1017.0 | |
| 20260502061816 | 3 | 72 | 3.2 | 6.4 | 0.00 | 0.13 | 0.00 | 75 | 1017.0 |
| 20260502060816 | 4 | 35 | 3.2 | 6.4 | 0.00 | 0.15 | 0.00 | 75 | 1016.9 |
| 20260502055836 | 4 | 71 | 3.2 | 4.8 | 0.00 | 0.15 | 0.00 | 74 | 1016.8 |
| 20260502054816 | 5 | 73 | 0.0 | 8.0 | 0.00 | 0.15 | 0.00 | 73 | 1016.9 |
| 20260502053836 | 5 | 89 | 3.2 | 4.8 | 0.00 | 0.15 | 0.00 | 73 | 1016.8 |
| 20260502052836 | 5 | 96 | 4.8 | 6.4 | 0.00 | 0.15 | 0.00 | 74 | 1016.9 |
| 20260502051816 | 5 | 94 | 3.2 | 6.4 | 0.00 | 0.15 | 0.00 | 75 | 1016.8 |
| 20260502050836 | 5 | 59 | 1.6 | 4.8 | 0.00 | 0.20 | 0.00 | 76 | 1016.8 |
| 20260502045816 | 5 | 119 | 1.6 | 3.2 | 0.00 | 0.20 | 0.00 | 75 | 1016.8 |
| 20260502044816 | 5 | 100 | 1.6 | 3.2 | 0.00 | 0.23 | 0.00 | 74 | 1016.7 |
| 20260502043816 | 5 | 0.0 | 0.0 | 0.00 | 0.28 | 0.00 | 73 | 1016.7 | |
| 20260502042816 | 5 | 0.0 | 0.0 | 0.00 | 0.28 | 0.00 | 71 | 1016.5 | |
| 20260502041816 | 5 | 0.0 | 0.0 | 0.00 | 0.30 | 0.00 | 71 | 1016.4 | |
| 20260502040816 | 5 | 0.0 | 0.0 | 0.00 | 0.30 | 0.00 | 70 | 1016.3 | |
| 20260502035816 | 5 | 0.0 | 0.0 | 0.00 | 0.30 | 0.30 | 70 | 1016.3 | |
| 20260502034816 | 5 | 0.0 | 0.0 | 0.00 | 0.33 | 0.30 | 68 | 1016.1 | |
| 20260502033816 | 5 | 0.0 | 0.0 | 0.00 | 0.36 | 0.30 | 68 | 1016.2 | |
| 20260502032836 | 6 | 317 | 1.6 | 3.2 | 0.00 | 0.36 | 0.30 | 68 | 1016.1 |
| 20260502031837 | 6 | 0.0 | 0.0 | 0.00 | 0.36 | 0.30 | 68 | 1016.0 | |
| 20260502030816 | 6 | 321 | 1.6 | 3.2 | 0.00 | 0.36 | 0.30 | 68 | 1016.1 |
| 20260502025816 | 6 | 299 | 1.6 | 6.4 | 0.00 | 0.36 | 0.30 | 67 | 1016.1 |
| 20260502024816 | 6 | 282 | 1.6 | 4.8 | 0.00 | 0.36 | 0.30 | 67 | 1016.1 |
| 20260502023816 | 6 | 321 | 1.6 | 3.2 | 0.00 | 0.36 | 0.30 | 66 | 1016.0 |
| 20260502022816 | 6 | 325 | 1.6 | 3.2 | 0.00 | 0.36 | 0.30 | 66 | 1016.1 |
| 20260502021816 | 6 | 0.0 | 0.0 | 0.00 | 0.36 | 0.30 | 66 | 1016.2 | |
| 20260502020816 | 6 | 0.0 | 1.6 | 0.00 | 0.36 | 0.30 | 66 | 1016.0 | |
| 20260502015816 | 6 | 320 | 1.6 | 3.2 | 0.00 | 0.36 | 0.30 | 65 | 1015.9 |
| 20260502014816 | 6 | 360 | 1.6 | 3.2 | 0.00 | 0.36 | 0.30 | 65 | 1015.8 |
| 20260502013836 | 7 | 317 | 3.2 | 4.8 | 0.00 | 0.36 | 0.30 | 65 | 1015.7 |
| 20260502012816 | 7 | 338 | 3.2 | 4.8 | 0.00 | 0.36 | 0.30 | 64 | 1015.6 |
| 20260502011816 | 7 | 340 | 3.2 | 4.8 | 0.00 | 0.36 | 0.30 | 64 | 1015.5 |
| 20260502010815 | 7 | 333 | 3.2 | 4.8 | 0.00 | 0.36 | 0.30 | 64 | 1015.5 |
| 20260502005816 | 7 | 6 | 6.4 | 11.3 | 0.00 | 0.36 | 0.30 | 64 | 1015.4 |
| 20260502004816 | 7 | 303 | 1.6 | 11.3 | 0.00 | 0.36 | 0.30 | 64 | 1015.2 |
| 20260502003816 | 7 | 313 | 3.2 | 4.8 | 0.00 | 0.36 | 0.30 | 64 | 1015.3 |
| 20260502002816 | 7 | 311 | 0.0 | 4.8 | 0.00 | 0.36 | 0.30 | 63 | 1015.2 |
| 20260502001816 | 7 | 277 | 1.6 | 3.2 | 0.00 | 0.36 | 0.30 | 63 | 1015.2 |
| 20260502000816 | 7 | 312 | 1.6 | 3.2 | 0.00 | 0.36 | 0.30 | 62 | 1015.0 |
| 20260501235836 | 7 | 306 | 4.8 | 12.9 | 0.00 | 0.36 | 0.30 | 61 | 1014.9 |
| 20260501234815 | 8 | 289 | 4.8 | 11.3 | 0.00 | 0.36 | 0.30 | 61 | 1014.6 |
| 20260501233816 | 8 | 342 | 8.0 | 16.1 | 0.00 | 0.36 | 0.30 | 59 | 1014.6 |
| 20260501232816 | 8 | 341 | 12.9 | 20.9 | 0.00 | 0.36 | 0.30 | 59 | 1014.4 |
| 20260501231837 | 8 | 4 | 4.8 | 8.0 | 0.00 | 0.36 | 0.30 | 58 | 1014.4 |
| 20260501230816 | 8 | 356 | 6.4 | 17.7 | 0.00 | 0.36 | 0.30 | 57 | 1014.3 |
| 20260501225816 | 9 | 2 | 6.4 | 14.5 | 0.00 | 0.36 | 0.30 | 57 | 1014.3 |
| 20260501224816 | 9 | 343 | 6.4 | 12.9 | 0.00 | 0.36 | 0.30 | 57 | 1014.3 |
| 20260501223917 | 9 | 358 | 4.8 | 11.3 | 0.00 | 0.36 | 0.30 | 57 | 1014.3 |
| 20260501222815 | 9 | 337 | 9.7 | 14.5 | 0.00 | 0.36 | 0.30 | 55 | 1014.3 |
| 20260501221816 | 9 | 316 | 6.4 | 12.9 | 0.00 | 0.36 | 0.30 | 54 | 1014.1 |
| 20260501220816 | 10 | 288 | 6.4 | 9.7 | 0.00 | 0.36 | 0.30 | 54 | 1014.1 |
| 20260501214816 | 10 | 296 | 4.8 | 17.7 | 0.00 | 0.36 | 0.30 | 52 | 1013.9 |
| 20260501213816 | 10 | 293 | 8.0 | 16.1 | 0.00 | 0.36 | 0.30 | 54 | 1013.9 |
| 20260501212817 | 10 | 359 | 9.7 | 16.1 | 0.00 | 0.36 | 0.30 | 51 | 1013.8 |
| 20260501211817 | 10 | 331 | 4.8 | 11.3 | 0.00 | 0.36 | 0.30 | 51 | 1013.6 |